TimePDT,TemperatureF,Dew PointF,Humidity,Sea Level PressureIn,VisibilityMPH,Wind Direction,Wind SpeedMPH,Gust SpeedMPH,PrecipitationIn,Events,Conditions,WindDirDegrees,DateUTC
12:56 AM,54.0,41.0,62,30.01,10.0,NNW,3.5,-,N/A,,Clear,330,2013-04-02 07:56:00
1:56 AM,50.0,41.0,71,30.02,10.0,Calm,Calm,-,N/A,,Clear,0,2013-04-02 08:56:00
2:56 AM,48.9,39.9,71,30.04,10.0,Calm,Calm,-,N/A,,Clear,0,2013-04-02 09:56:00
3:56 AM,45.0,39.0,80,30.05,10.0,Calm,Calm,-,N/A,,Clear,0,2013-04-02 10:56:00
4:56 AM,44.1,37.9,79,30.07,10.0,Calm,Calm,-,N/A,,Clear,0,2013-04-02 11:56:00
5:56 AM,45.0,37.9,76,30.09,10.0,Calm,Calm,-,N/A,,Clear,0,2013-04-02 12:56:00
6:56 AM,44.1,37.9,79,30.11,10.0,Calm,Calm,-,N/A,,Clear,0,2013-04-02 13:56:00
7:56 AM,48.0,41.0,77,30.12,10.0,Calm,Calm,-,N/A,,Clear,0,2013-04-02 14:56:00
8:56 AM,51.1,43.0,74,30.12,10.0,NE,4.6,-,N/A,,Clear,40,2013-04-02 15:56:00
9:56 AM,55.0,44.1,67,30.12,10.0,NE,4.6,-,N/A,,Clear,40,2013-04-02 16:56:00
10:56 AM,59.0,45.0,60,30.09,10.0,North,8.1,-,N/A,,Clear,10,2013-04-02 17:56:00
11:56 AM,61.0,44.1,54,30.09,10.0,NNW,4.6,-,N/A,,Clear,340,2013-04-02 18:56:00
12:56 PM,64.9,43.0,45,30.06,10.0,WNW,3.5,-,N/A,,Clear,300,2013-04-02 19:56:00
1:56 PM,68.0,42.1,39,30.05,10.0,Variable,4.6,-,N/A,,Partly Cloudy,0,2013-04-02 20:56:00
2:56 PM,68.0,43.0,40,30.03,10.0,Variable,5.8,-,N/A,,Scattered Clouds,0,2013-04-02 21:56:00
3:56 PM,69.1,44.1,40,30.03,10.0,NNW,9.2,-,N/A,,Clear,330,2013-04-02 22:56:00
4:56 PM,69.1,43.0,39,30.02,10.0,NW,10.4,17.3,N/A,,Scattered Clouds,310,2013-04-02 23:56:00
5:56 PM,66.9,42.1,40,30.02,10.0,NW,10.4,-,N/A,,Clear,310,2013-04-03 00:56:00
6:56 PM,64.0,42.1,45,30.02,10.0,NNW,9.2,-,N/A,,Scattered Clouds,330,2013-04-03 01:56:00
7:56 PM,62.1,41.0,46,30.02,10.0,Calm,Calm,-,N/A,,Clear,0,2013-04-03 02:56:00
8:56 PM,57.9,42.1,56,30.04,10.0,Calm,Calm,-,N/A,,Clear,0,2013-04-03 03:56:00
9:56 PM,55.0,42.1,62,30.05,10.0,SE,4.6,-,N/A,,Clear,140,2013-04-03 04:56:00
10:56 PM,53.1,41.0,64,30.06,10.0,South,3.5,-,N/A,,Clear,170,2013-04-03 05:56:00
11:56 PM,52.0,41.0,66,30.06,10.0,Calm,Calm,-,N/A,,Clear,0,2013-04-03 06:56:00